Retour au catalogue

ZQ-2E R/B

ActifPO
NORAD 69095·ROCKET BODY·🇨🇳 China

Lancé May 13, 2026 depuis Jiuquan Satellite Launch Center

Loading…

Prochains Passages (prochaines 24 heures)

TLE

FraisSource: Space-Track

Époque: Sep 14, 2026, 20:28 UTC

1 69095U 26105A   26257.85335907  .00231904 -73951-6  36971-3 0  9995
2 69095  88.9646 181.7219 0311993 310.4158  47.0258 15.52432327 18873

Suivez ZQ-2E R/B en temps réel avec AllMySat

Download on the App Store